Home   Weather   Santa Cruz   Past weeks

Flag for USA Past Weather in Santa Cruz, California, USA — Yesterday and Last 2 Weeks

Now
43 °F

Overcast.


Feels Like: 40 °F
Forecast: 49 / 54 °F
Wind: 5 mph from Northwest

Location: Watsonville Municipal Airport

Current Time: Jan 21, 2017 at 7:46:48 am

Latest Report: Jan 21, 2017 at 6:53 am


Visibility: 10 mi

Pressure: 29.75 "Hg

Humidity: 100%

Dew Point: 43 °F

Location of Santa CruzLocation

Past Weather in Santa Cruz — Graph

°F

Santa Cruz Temperature Yesterday

Maximum temperature yesterday: 56 °F (at 11:53 am)
Minimum temperature yesterday: 44 °F (at 9:53 pm)
Average temperature yesterday: 48 °F

High & Low Weather Summary for the Past Weeks

 TemperatureHumidityPressure
High61 °F (Jan 8, 6:53 am)100% (Jan 7, 4:53 am)30.23 "Hg (Jan 7, 4:53 am)
Low32 °F (Jan 6, 6:53 am)51% (Jan 17, 1:53 pm)29.36 "Hg (Jan 20, 5:38 am)
Average50 °F92%29.97 "Hg
* Reported Jan 6 6:53 am — Jan 21 6:05 am, Santa Cruz, Weather by CustomWeather, © 2017

Note: Actual official high and low records may vary slightly from our data, if they occured in-between our weather recording intervals... More about our weather records

Advertising

Santa Cruz Weather History for the Previous 24 Hours

Scroll right to see more
 ConditionsComfort  
Time TempWeatherWind HumidityBarometerVisibility
6:05 am
Sat, Jan 21
42 °FOvercast.No wind100%29.73 "Hg10 mi
5:53 am42 °FPartly cloudy.3 mph100%29.72 "Hg10 mi
4:53 am43 °FLight rain. Mostly cloudy.5 mph100%29.69 "Hg8 mi
3:53 am43 °FPartly cloudy.3 mph100%29.66 "Hg10 mi
2:53 am43 °FPartly cloudy.3 mph100%29.65 "Hg10 mi
1:53 am43 °FLight rain. Fog.5 mph100%29.61 "Hg6 mi
12:53 am43 °FMostly cloudy.No wind100%29.58 "Hg10 mi
11:53 pm
Fri, Jan 20
44 °FLight rain. Partly cloudy.No wind100%29.57 "Hg10 mi
11:18 pm44 °FRain. Fog.7 mph100%29.57 "Hg5 mi
10:53 pm44 °FPassing clouds.No wind100%29.56 "Hg10 mi
10:18 pm44 °FLight rain. Partly cloudy.No wind100%29.55 "Hg10 mi
9:53 pm44 °FLight rain. Mostly cloudy.No wind100%29.54 "Hg8 mi
8:53 pm46 °FLight rain. Passing clouds.5 mph89%29.51 "Hg9 mi
7:53 pm46 °FLight rain. Fog.5 mph100%29.48 "Hg6 mi
6:53 pm45 °FPassing clouds.No wind97%29.46 "Hg10 mi
5:53 pm47 °FLight rain. Fog.6 mph97%29.44 "Hg5 mi
4:53 pm49 °FCloudy.12 mph90%29.41 "Hg10 mi
3:53 pm50 °FLight rain. Broken clouds.15 mph86%29.38 "Hg10 mi
2:53 pm52 °FBroken clouds.13 mph89%29.38 "Hg10 mi
1:53 pm54 °FPartly sunny.17 mph77%29.37 "Hg10 mi
1:05 pm54 °FScattered clouds.13 mph80%29.37 "Hg10 mi
12:53 pm54 °FMostly cloudy.15 mph86%29.38 "Hg10 mi
11:53 am56 °FBroken clouds.17 mph84%29.39 "Hg10 mi
10:53 am54 °FLight rain. Broken clouds.7 mph100%29.41 "Hg7 mi
10:40 am54 °FBroken clouds.6 mphN/A29.41 "Hg10 mi
9:53 am52 °FSunny.3 mphN/A29.40 "Hg10 mi
8:53 am48 °FOvercast.No windN/A29.40 "Hg10 mi
7:53 am46 °FLight rain. More clouds than sun.3 mphN/A29.38 "Hg10 mi
7:32 am46 °FLight rain. Cloudy.7 mphN/A29.38 "Hg6 mi
Weather by CustomWeather, © 2017

See weather overviewHow to use our weather pages